Location: Highland Meadows Observing Site
(48.4428°N, 114.5461°W)
Time: 02:06:09
(UTC-06:00)

Amateur Radio Satellites - All Passes

Search period start: 17 April 2014 01:36
Search period end: 18 April 2014 01:36
Location: Highland Meadows Observing Site, 48.4428°N, 114.5461°W

Satellite Date Start Highest point End Downlink Frequencies (MHz)
Time Altitude Azimuth
Sapphire 17 Apr 01:36:07 01:40:32 26° 110° (ESE) 01:44:59 437.095 MHz 1200 baud AX-25 AFSK
Oscar 19 17 Apr 02:00:09 02:02:50 14° 87° (E) 02:05:31 437.125 CW, 437.150 USB
Oscar 16 17 Apr 02:07:21 02:10:47 18° 89° (E) 02:14:12 437.025 USB, Beacon 2401.1428
UOSAT-12 17 Apr 02:15:26 02:19:26 26° 34° (NE) 02:23:26 437.025 FM, 437.400 FM
PCSat 17 Apr 02:20:07 02:25:26 60° 119° (ESE) 02:30:47 145.825 MHz
OPAL 17 Apr 02:29:54 02:34:33 40° 63° (ENE) 02:39:18 ?
Uribyol 2 17 Apr 02:37:34 02:40:57 17° 89° (E) 02:44:18 436.500 FM
SO-50 17 Apr 02:58:02 03:01:24 20° 247° (WSW) 03:04:47 436.795 FM
AO-27 17 Apr 03:15:27 03:20:10 35° 96° (E) 03:24:52 436.795 MHz FM
Sapphire 17 Apr 03:18:17 03:23:37 59° 309° (NW) 03:29:00 437.095 MHz 1200 baud AX-25 AFSK
KITSAT 1 17 Apr 03:25:13 03:31:48 28° 106° (ESE) 03:38:23 435.175 FM
ITAMSAT 1 17 Apr 03:26:46 03:31:41 42° 98° (E) 03:36:35 435.822 SSB
Oscar 19 17 Apr 03:37:40 03:42:55 88° 287° (WNW) 03:48:07 437.125 CW, 437.150 USB
TMSAT-1 17 Apr 03:43:22 03:46:31 16° 88° (E) 03:49:40 436.925 FM
Oscar 16 17 Apr 03:45:30 03:50:42 73° 288° (WNW) 03:55:53 437.025 USB, Beacon 2401.1428
UOSAT-12 17 Apr 03:55:19 04:00:02 70° 235° (SW) 04:04:43 437.025 FM, 437.400 FM
AO-Echo 17 Apr 04:01:18 04:06:10 69° 102° (ESE) 04:10:52 ?
PCSat 17 Apr 04:04:26 04:09:13 31° 320° (NW) 04:14:02 145.825 MHz
OPAL 17 Apr 04:09:04 04:13:32 32° 262° (W) 04:18:05 ?
Uribyol 2 17 Apr 04:15:49 04:21:00 73° 288° (WNW) 04:26:09 436.500 FM
Uosat F 17 Apr 04:19:37 04:21:15 11° 86° (E) 04:22:53 435.120 FM
Gurwin Techsat 1B 17 Apr 04:31:52 04:37:05 54° 100° (E) 04:42:16 435.225 FM
AO-27 17 Apr 04:54:59 04:59:43 37° 295° (WNW) 05:04:26 436.795 MHz FM
Sapphire 17 Apr 05:04:35 05:08:13 18° 332° (NNW) 05:11:51 437.095 MHz 1200 baud AX-25 AFSK
ITAMSAT 1 17 Apr 05:06:34 05:11:04 31° 297° (WNW) 05:15:34 435.822 SSB
KITSAT 1 17 Apr 05:18:17 05:26:26 80° 308° (NW) 05:34:37 435.175 FM
Oscar 19 17 Apr 05:18:28 05:21:33 16° 305° (NW) 05:24:38 437.125 CW, 437.150 USB
TMSAT-1 17 Apr 05:21:48 05:27:07 82° 286° (WNW) 05:32:25 436.925 FM
Oscar 16 17 Apr 05:26:46 05:29:12 13° 307° (NW) 05:31:37 437.025 USB, Beacon 2401.1428
JAS-1B 17 Apr 05:37:53 05:43:37 63° 102° (ESE) 05:49:18 435.800 - 435.900 CW/SSB
UOSAT-12 17 Apr 05:38:33 05:39:20 10° 253° (WSW) 05:40:06 437.025 FM, 437.400 FM
AO-Echo 17 Apr 05:41:09 05:44:25 18° 302° (WNW) 05:47:38 ?
AO-7 17 Apr 05:51:45 05:59:46 49° 100° (E) 06:07:44 29.400 - 29.500 MHz
PCSat 17 Apr 05:52:12 05:54:28 12° 345° (NNW) 05:56:44 145.825 MHz
Uosat F 17 Apr 05:55:49 06:00:52 81° 105° (ESE) 06:05:52 435.120 FM
Uribyol 2 17 Apr 05:57:12 05:59:37 13° 307° (NW) 06:02:01 436.500 FM
Gurwin Techsat 1B 17 Apr 06:12:25 06:16:46 26° 299° (WNW) 06:21:05 435.225 FM
STRAND 1 17 Apr 06:42:15 06:47:04 44° 67° (ENE) 06:51:54 ?
Sapphire 17 Apr 06:53:03 06:54:01 10° 359° (N) 06:54:59 437.095 MHz 1200 baud AX-25 AFSK
TMSAT-1 17 Apr 07:03:19 07:06:15 15° 306° (NW) 07:09:11 436.925 FM
Hamsat 17 Apr 07:10:04 07:13:38 24° 93° (E) 07:17:11 145.90 MHz
KITSAT 1 17 Apr 07:16:02 07:23:07 31° 333° (NNW) 07:30:12 435.175 FM
JAS-1B 17 Apr 07:29:29 07:33:52 23° 304° (NW) 07:38:10 435.800 - 435.900 CW/SSB
RS-15 17 Apr 07:30:27 07:40:26 39° 109° (ESE) 07:50:09 29.354 - 29.394 USB, Beacon 29.352 USB
MaSat-1 17 Apr 07:35:08 07:37:37 30° 55° (NE) 07:40:26 437.345 MHz
Uosat F 17 Apr 07:35:52 07:39:03 17° 304° (WNW) 07:42:13 435.120 FM
PCSat 17 Apr 07:38:39 07:40:28 12° 12° (NNE) 07:42:18 145.825 MHz
AO-7 17 Apr 07:44:45 07:52:34 48° 301° (WNW) 08:00:24 29.400 - 29.500 MHz
JAS-2 17 Apr 08:18:18 08:23:11 37° 97° (E) 08:28:24 435.800 - 435.900 CW/SSB, 435.910 FM
STRAND 1 17 Apr 08:22:01 08:26:25 29° 265° (W) 08:30:51 ?
Sapphire 17 Apr 08:36:30 08:39:53 16° 25° (NNE) 08:43:16 437.095 MHz 1200 baud AX-25 AFSK
SO-67 17 Apr 08:40:49 08:44:10 41° 98° (E) 08:47:29 435.3500 MHz FM
Hamsat 17 Apr 08:45:42 08:49:45 39° 291° (WNW) 08:53:48 145.90 MHz
HO-68 17 Apr 09:13:51 09:17:16 14° 84° (E) 09:20:40 435.675 MHz FM
MaSat-1 17 Apr 09:14:07 09:15:57 15° 248° (WSW) 09:17:55 437.345 MHz
KITSAT 1 17 Apr 09:15:17 09:21:24 22° 2° (N) 09:27:30 435.175 FM
PCSat 17 Apr 09:21:22 09:25:54 26° 37° (NE) 09:30:25 145.825 MHz
AO-7 17 Apr 09:39:08 09:43:26 15° 325° (NW) 09:47:44 29.400 - 29.500 MHz
RS-15 17 Apr 09:40:48 09:52:03 74° 313° (NW) 10:03:02 29.354 - 29.394 USB, Beacon 29.352 USB
JAS-2 17 Apr 10:03:36 10:08:20 35° 295° (WNW) 10:13:21 435.800 - 435.900 CW/SSB, 435.910 FM
Oscar 11 17 Apr 10:14:47 10:16:38 12° 88° (E) 10:18:28 145.825 FM, Beacon 2401.500 USB
SO-67 17 Apr 10:14:48 10:17:02 16° 296° (WNW) 10:19:17 435.3500 MHz FM
Sapphire 17 Apr 10:19:18 10:24:37 51° 49° (NE) 10:29:53 437.095 MHz 1200 baud AX-25 AFSK
HO-68 17 Apr 10:59:07 11:06:18 69° 104° (ESE) 11:13:27 435.675 MHz FM
PCSat 17 Apr 11:04:28 11:09:54 77° 239° (WSW) 11:15:19 145.825 MHz
KITSAT 1 17 Apr 11:12:11 11:19:32 35° 31° (NNE) 11:26:49 435.175 FM
FUNcube-1 17 Apr 11:32:29 11:36:00 25° 94° (E) 11:39:33 145.950 - 145.970 MHz USB
Saudisat 1A 17 Apr 11:47:36 11:50:18 16° 111° (ESE) 11:52:59 436.775 MHz
Oscar 11 17 Apr 11:49:01 11:53:24 78° 285° (WNW) 11:57:45 145.825 FM, Beacon 2401.500 USB
RS-15 17 Apr 11:56:27 12:06:29 37° 343° (NNW) 12:16:26 29.354 - 29.394 USB, Beacon 29.352 USB
Sapphire 17 Apr 12:03:07 12:07:50 31° 249° (WSW) 12:12:31 437.095 MHz 1200 baud AX-25 AFSK
HO-68 17 Apr 12:47:28 12:53:31 31° 305° (NW) 12:59:34 435.675 MHz FM
PCSat 17 Apr 12:50:03 12:52:25 13° 257° (WSW) 12:54:47 145.825 MHz
AO-27 17 Apr 13:01:11 13:03:45 14° 53° (NE) 13:06:19 436.795 MHz FM
KITSAT 1 17 Apr 13:07:43 13:15:53 86° 236° (SW) 13:23:58 435.175 FM
FUNcube-1 17 Apr 13:08:40 13:12:32 36° 292° (WNW) 13:16:27 145.950 - 145.970 MHz USB
ITAMSAT 1 17 Apr 13:11:47 13:14:56 16° 55° (NE) 13:18:04 435.822 SSB
Oscar 19 17 Apr 13:20:05 13:24:31 30° 63° (ENE) 13:28:59 437.125 CW, 437.150 USB
Saudisat 1A 17 Apr 13:24:52 13:29:21 78° 310° (NW) 13:33:51 436.775 MHz
Oscar 11 17 Apr 13:27:36 13:28:51 11° 304° (NW) 13:30:06 145.825 FM, Beacon 2401.500 USB
Oscar 16 17 Apr 13:27:38 13:32:19 37° 65° (ENE) 13:37:02 437.025 USB, Beacon 2401.1428
AO-Echo 17 Apr 13:40:34 13:44:29 22° 60° (ENE) 13:48:20 ?
Uribyol 2 17 Apr 13:58:44 14:03:28 38° 65° (ENE) 14:08:13 436.500 FM
RS-15 17 Apr 14:12:26 14:22:26 38° 18° (NNE) 14:32:27 29.354 - 29.394 USB, Beacon 29.352 USB
Gurwin Techsat 1B 17 Apr 14:18:53 14:22:43 21° 58° (ENE) 14:26:35 435.225 FM
AO-27 17 Apr 14:37:15 14:42:26 76° 73° (ENE) 14:47:38 436.795 MHz FM
JAS-1B 17 Apr 14:38:31 14:43:32 20° 54° (NE) 14:48:04 435.800 - 435.900 CW/SSB
Oscar 10/S400 17 Apr 14:44:46 16:00:14 21° 264° (W) 18:27:16 145.825 - 145.975 CW/USB, Beacon 145.810 USB
ITAMSAT 1 17 Apr 14:48:32 14:53:44 89° 255° (WSW) 14:58:58 435.822 SSB
Oscar 19 17 Apr 14:58:50 15:03:43 43° 262° (W) 15:08:39 437.125 CW, 437.150 USB
KITSAT 1 17 Apr 15:04:25 15:10:11 22° 257° (WSW) 15:15:55 435.175 FM
AO-7 17 Apr 15:04:47 15:11:09 26° 47° (NE) 15:17:33 29.400 - 29.500 MHz
Saudisat 1A 17 Apr 15:06:25 15:09:40 19° 331° (NNW) 15:12:55 436.775 MHz
Oscar 16 17 Apr 15:07:02 15:11:42 35° 264° (W) 15:16:25 437.025 USB, Beacon 2401.1428
TMSAT-1 17 Apr 15:07:18 15:12:04 36° 65° (ENE) 15:16:51 436.925 FM
AO-Echo 17 Apr 15:17:38 15:22:51 65° 258° (WSW) 15:27:58 ?
Uosat F 17 Apr 15:35:22 15:39:28 26° 61° (ENE) 15:43:35 435.120 FM
Uribyol 2 17 Apr 15:38:21 15:43:00 34° 264° (W) 15:47:41 436.500 FM
Gurwin Techsat 1B 17 Apr 15:56:53 16:02:11 71° 257° (WSW) 16:07:31 435.225 FM
OPAL 17 Apr 16:14:18 16:19:22 49° 102° (ESE) 16:24:24 ?
AO-27 17 Apr 16:19:16 16:22:33 17° 271° (W) 16:25:50 436.795 MHz FM
JAS-1B 17 Apr 16:25:22 16:33:28 81° 72° (ENE) 16:40:12 435.800 - 435.900 CW/SSB
RS-15 17 Apr 16:25:47 16:36:47 76° 48° (NE) 16:47:57 29.354 - 29.394 USB, Beacon 29.352 USB
ITAMSAT 1 17 Apr 16:31:28 16:33:59 14° 273° (W) 16:36:31 435.822 SSB
TMSAT-1 17 Apr 16:47:05 16:51:58 38° 263° (W) 16:56:54 436.925 FM
Saudisat 1A 17 Apr 16:50:40 16:51:01 10° 355° (N) 16:51:23 436.775 MHz
AO-7 17 Apr 16:54:38 17:02:55 85° 69° (ENE) 17:11:16 29.400 - 29.500 MHz
ISS 17 Apr 16:57:32 17:00:07 21° 140° (SE) 17:02:42 145.800 FM
Uosat F 17 Apr 17:13:08 17:18:01 50° 260° (W) 17:22:55 435.120 FM
SO-50 17 Apr 17:15:25 17:19:47 55° 123° (ESE) 17:24:13 436.795 FM
Gurwin Techsat 1B 17 Apr 17:42:10 17:43:08 10° 276° (W) 17:44:06 435.225 FM
OPAL 17 Apr 17:53:36 17:58:02 29° 300° (WNW) 18:02:27 ?
Hamsat 17 Apr 18:07:23 18:10:57 28° 66° (ENE) 18:14:34 145.90 MHz
UOSAT-12 17 Apr 18:12:11 18:14:40 15° 110° (ESE) 18:17:11 437.025 FM, 437.400 FM
JAS-1B 17 Apr 18:18:35 18:24:36 23° 269° (W) 18:29:57 435.800 - 435.900 CW/SSB
Saudisat 1A 17 Apr 18:30:15 18:32:35 14° 20° (NNE) 18:34:54 436.775 MHz
ISS 17 Apr 18:33:11 18:36:32 89° 338° (NNW) 18:39:55 145.800 FM
JAS-2 17 Apr 18:35:36 18:40:10 26° 62° (ENE) 18:44:29 435.800 - 435.900 CW/SSB, 435.910 FM
RS-15 17 Apr 18:38:44 18:48:18 37° 252° (WSW) 18:58:05 29.354 - 29.394 USB, Beacon 29.352 USB
AO-7 17 Apr 18:50:19 18:56:42 24° 270° (W) 19:03:09 29.400 - 29.500 MHz
STRAND 1 17 Apr 18:52:17 18:52:48 10° 85° (E) 18:53:19 ?
SO-50 17 Apr 18:56:43 19:00:38 29° 324° (NW) 19:04:37 436.795 FM
SO-67 17 Apr 19:18:27 19:21:25 26° 68° (ENE) 19:24:24 435.3500 MHz FM
Hamsat 17 Apr 19:43:04 19:46:52 33° 264° (W) 19:50:44 145.90 MHz
HO-68 17 Apr 19:46:54 19:51:41 20° 47° (NE) 19:56:28 435.675 MHz FM
UOSAT-12 17 Apr 19:49:33 19:54:09 87° 310° (NW) 19:58:52 437.025 FM, 437.400 FM
Saudisat 1A 17 Apr 20:09:06 20:13:21 42° 43° (NE) 20:17:32 436.775 MHz
ISS 17 Apr 20:10:15 20:13:31 46° 358° (N) 20:16:47 145.800 FM
JAS-2 17 Apr 20:19:20 20:25:04 55° 259° (W) 20:30:19 435.800 - 435.900 CW/SSB, 435.910 FM
STRAND 1 17 Apr 20:27:48 20:32:55 73° 103° (ESE) 20:38:00 ?
SO-50 17 Apr 20:40:57 20:42:42 12° 347° (NNW) 20:44:28 436.795 FM
SO-67 17 Apr 20:51:43 20:54:34 23° 266° (W) 20:57:27 435.3500 MHz FM
Oscar 11 17 Apr 21:13:24 21:16:12 17° 60° (ENE) 21:19:00 145.825 FM, Beacon 2401.500 USB
HO-68 17 Apr 21:31:11 21:38:17 75° 69° (ENE) 21:45:27 435.675 MHz FM
UOSAT-12 17 Apr 21:31:23 21:34:59 22° 330° (NNW) 21:38:37 437.025 FM, 437.400 FM
ISS 17 Apr 21:47:10 21:50:33 72° 18° (NNE) 21:53:54 145.800 FM
Saudisat 1A 17 Apr 21:48:57 21:52:51 31° 242° (WSW) 21:56:42 436.775 MHz
STRAND 1 17 Apr 22:08:02 22:11:35 19° 302° (WNW) 22:15:08 ?
SO-50 17 Apr 22:23:31 22:25:19 12° 13° (NNE) 22:27:08 436.795 FM
FUNcube-1 17 Apr 22:32:53 22:36:38 32° 67° (ENE) 22:40:22 145.950 - 145.970 MHz USB
Oscar 11 17 Apr 22:47:41 22:51:57 62° 259° (WSW) 22:56:16 145.825 FM, Beacon 2401.500 USB
UOSAT-12 17 Apr 23:15:22 23:16:54 11° 354° (N) 23:18:25 437.025 FM, 437.400 FM
MaSat-1 17 Apr 23:20:16 23:23:07 88° 115° (ESE) 23:25:41 437.345 MHz
HO-68 17 Apr 23:21:01 23:26:41 25° 269° (W) 23:32:24 435.675 MHz FM
ISS 17 Apr 23:24:10 23:27:06 28° 217° (SW) 23:30:02 145.800 FM
SO-50 18 Apr 00:03:21 00:07:23 29° 36° (NE) 00:11:27 436.795 FM
FUNcube-1 18 Apr 00:09:30 00:13:06 27° 265° (W) 00:16:42 145.950 - 145.970 MHz USB
UOSAT-12 18 Apr 00:56:22 00:59:03 15° 19° (NNE) 01:01:45 437.025 FM, 437.400 FM
Sapphire 18 Apr 01:06:29 01:10:19 20° 107° (ESE) 01:14:10 437.095 MHz 1200 baud AX-25 AFSK
